(160038) = 2001 ST237 = 1999 CL56

Discovered at Socorro on 1999-02-10 by LINEAR.

Orbit

Orbit type: Main Belt

Note: WebGL enabled browser required.

epoch2023-09-13.0
epoch JD2460200.5
perihelion date2023-02-24.27804
perihelion JD2459999.77804
argument of perihelion (°)118.22292
ascending node (°)23.72288
inclination (°)5.52864
eccentricity0.1791586
perihelion distance (AU)2.0743911
Tisserand w.r.t. Jupiter3.4
ΔV w.r.t. Earth (km/sec)9.2
semimajor axis (AU)2.5271521
mean anomaly (°)49.24381
mean daily motion (°/day)0.24533350
aphelion distance (AU)2.980
period (years)4.02
P-vector [x]-0.78577904
P-vector [y]0.52833206
P-vector [z]0.32158442
Q-vector [x]-0.61729162
Q-vector [y]-0.70248015
Q-vector [z]-0.35422125
absolute magnitude16.2
phase slope0.15
uncertainty0
referenceMPEC 2023-X02
observations used994
oppositions14
arc length (days)10780
first opposition used1993
last opposition used2023
residual rms (arc-secs)0.68
perturbers coarse indicatorM-v
perturbers precise indicator003Ek
first observation date used1993-10-10.0
last observation date used2023-04-16.0
computer nameMPCLINUX
JD of orbit computation2456612.597801
perihelion JD uncertainty (days)1.7157E-04
argument of perihelion uncertainty (°)6.6186E-05
ascending node uncertainty (°)3.7596E-05
inclination uncertainty (°)6.1147E-06
eccentricity uncertainty 2.5899E-07
perihelion distance uncertainty (AU)6.6229E-07
Minimum Orbit Intersection Distances (in AU)
for orbit epoch: 2460200.5, reference: E2023-X02
Mercury1.72217
Venus1.35637
Earth1.09222
Mars0.42126
Jupiter2.04734
Saturn6.63485
Uranus16.3171
Neptune27.0171

Observations

1019 total observations over interval: 1993 10 10.11979 – 2023 04 16.539019
These data are available for download (format description).

Date (UT) J2000 RA J2000 Dec Magn Location Ref
1993 10 10.11979 00 57 59.20 +04 45 08.5 19.5   809 – European Southern Observatory, La Silla MPS 37453
1993 10 10.14063 00 57 58.11 +04 45 02.1   809 – European Southern Observatory, La Silla MPS 37453
1993 10 10.16146 00 57 56.56 +04 44 57.0   809 – European Southern Observatory, La Silla MPS 37453
1999 02 10.42288 11 22 30.48 +12 16 11.2 19.3   704 – Lincoln Laboratory ETS, New Mexico MPS 3943
1999 02 10.44381 11 22 29.71 +12 16 15.8 19.6   704 – Lincoln Laboratory ETS, New Mexico MPS 3943
1999 02 10.46537 11 22 28.91 +12 16 21.1 19.6   704 – Lincoln Laboratory ETS, New Mexico MPS 3943
1999 02 10.48631 11 22 27.87 +12 16 22.9 19.4   704 – Lincoln Laboratory ETS, New Mexico MPS 3943
1999 02 10.50762 11 22 27.07 +12 16 28.4 19.4   704 – Lincoln Laboratory ETS, New Mexico MPS 3943
1999 02 13.42580 11 20 33.14 +12 26 23.7 18.9   704 – Lincoln Laboratory ETS, New Mexico MPS 3943
1999 02 13.43988 11 20 32.55 +12 26 27.8 18.9   704 – Lincoln Laboratory ETS, New Mexico MPS 3943
1999 02 13.45385 11 20 31.64 +12 26 32.4 18.8   704 – Lincoln Laboratory ETS, New Mexico MPS 3943
1999 02 13.46792 11 20 31.15 +12 26 34.3 18.8   704 – Lincoln Laboratory ETS, New Mexico MPS 3943
1999 03 20.12323 10 49 41.43 +13 55 50.3 18.8   704 – Lincoln Laboratory ETS, New Mexico MPS 4501
1999 03 20.14121 10 49 40.56 +13 55 50.5 19.0   704 – Lincoln Laboratory ETS, New Mexico MPS 4501
1999 03 20.15966 10 49 39.50 +13 55 50.7 19.4   704 – Lincoln Laboratory ETS, New Mexico MPS 4501
1999 03 20.17768 10 49 38.86 +13 55 50.8 19.4   704 – Lincoln Laboratory ETS, New Mexico MPS 4501
1999 03 20.29412 10 49 32.95 +13 55 51.5 18.1 R 699 – Lowell Observatory-LONEOS MPS 67514
1999 03 20.31706 10 49 31.84 +13 55 52.7   699 – Lowell Observatory-LONEOS MPS 67514
1999 03 20.34000 10 49 30.72 +13 55 52.5   699 – Lowell Observatory-LONEOS MPS 67514
1999 03 23.20202 10 47 21.52 +13 55 40.5 18.2   704 – Lincoln Laboratory ETS, New Mexico MPS 4501
1999 03 23.21651 10 47 20.87 +13 55 40.7 18.5   704 – Lincoln Laboratory ETS, New Mexico MPS 4501
1999 03 23.23098 10 47 20.23 +13 55 38.7 18.5   704 – Lincoln Laboratory ETS, New Mexico MPS 4501
1999 03 23.24566 10 47 19.56 +13 55 40.8 18.6   704 – Lincoln Laboratory ETS, New Mexico MPS 4501
2001 09 19.33591 00 54 14.60 +03 08 16.2 20.1   704 – Lincoln Laboratory ETS, New Mexico MPS 36786
2001 09 19.35004 00 54 13.83 +03 08 12.6 19.9   704 – Lincoln Laboratory ETS, New Mexico MPS 36786
2001 09 19.36418 00 54 13.14 +03 08 09.2 20.1   704 – Lincoln Laboratory ETS, New Mexico MPS 36786
2001 09 19.37832 00 54 12.39 +03 08 05.7 19.8   704 – Lincoln Laboratory ETS, New Mexico MPS 36786
2001 09 21.32504 00 52 34.98 +03 00 46.5 19.4   704 – Lincoln Laboratory ETS, New Mexico MPS 36786
2001 09 21.34418 00 52 33.99 +03 00 42.3 19.6   704 – Lincoln Laboratory ETS, New Mexico MPS 36786
2001 09 21.36680 00 52 32.78 +03 00 37.8 19.7   704 – Lincoln Laboratory ETS, New Mexico MPS 36786
2001 09 21.38100 00 52 32.04 +03 00 34.3 19.8   704 – Lincoln Laboratory ETS, New Mexico MPS 36786
2001 10 16.26904 00 29 43.90 +01 22 13.3 20.2 V 291 – LPL/Spacewatch II MPS 38904
2001 10 16.28901 00 29 42.82 +01 22 08.7 20.1 V 291 – LPL/Spacewatch II MPS 38904
2001 10 16.30954 00 29 41.74 +01 22 05.5 20.7 V 291 – LPL/Spacewatch II MPS 38904
2001 11 20.08008 00 10 36.84 +00 33 56.4 21.1 V 291 – LPL/Spacewatch II MPS 41642
2001 11 20.13112 00 10 36.35 +00 33 59.7 20.7 V 291 – LPL/Spacewatch II MPS 41642
2001 11 20.17174 00 10 36.00 +00 34 02.5 21.0 V 291 – LPL/Spacewatch II MPS 41642
2003 01 27.38475 11 11 29.82 +13 53 02.8 18.6   704 – Lincoln Laboratory ETS, New Mexico MPS 71127
2003 01 27.39999 11 11 29.51 +13 53 05.0 19.0   704 – Lincoln Laboratory ETS, New Mexico MPS 71127
2003 01 27.41514 11 11 29.14 +13 53 06.3 19.6   704 – Lincoln Laboratory ETS, New Mexico MPS 71127
2003 01 27.43023 11 11 28.91 +13 53 09.9 19.5   704 – Lincoln Laboratory ETS, New Mexico MPS 71127
2003 01 27.44561 11 11 28.63 +13 53 12.6 19.0   704 – Lincoln Laboratory ETS, New Mexico MPS 71127
2003 01 28.446880 11 11 10.521 +13 55 50.75 19.00 V 645 – Apache Point-Sloan Digital Sky Survey MPS 79541
2003 01 28.450352 11 11 10.445 +13 55 51.30 19.86   645 – Apache Point-Sloan Digital Sky Survey MPS 79541
2003 02 01.40585 11 09 39.16 +14 07 29.4 18.7   704 – Lincoln Laboratory ETS, New Mexico MPS 71127
2003 02 01.42115 11 09 38.72 +14 07 31.8 19.6   704 – Lincoln Laboratory ETS, New Mexico MPS 71127
2003 02 01.43633 11 09 38.26 +14 07 34.3 19.7   704 – Lincoln Laboratory ETS, New Mexico MPS 71127
2003 02 01.45167 11 09 37.77 +14 07 37.6 19.2   704 – Lincoln Laboratory ETS, New Mexico MPS 71127
2003 02 04.33192 11 08 11.74 +14 17 07.8 19.0   704 – Lincoln Laboratory ETS, New Mexico MPS 73070
2003 02 04.34704 11 08 11.19 +14 17 09.3 19.3   704 – Lincoln Laboratory ETS, New Mexico MPS 73070
2003 02 04.36131 11 08 10.71 +14 17 13.3 19.4   704 – Lincoln Laboratory ETS, New Mexico MPS 73070
2003 02 04.37537 11 08 10.29 +14 17 15.7 19.3   704 – Lincoln Laboratory ETS, New Mexico MPS 73070
2003 02 04.38954 11 08 09.79 +14 17 19.1 19.9   704 – Lincoln Laboratory ETS, New Mexico MPS 73070
2003 02 23.55000 10 53 06.51 +15 26 56.3 19.1   608 – Haleakala-AMOS MPS 73689
2003 02 23.56068 10 53 05.87 +15 26 59.3 19.0   608 – Haleakala-AMOS MPS 73689
2003 02 23.57211 10 53 05.14 +15 27 01.2 19.4   608 – Haleakala-AMOS MPS 73689
2003 02 25.97411 10 50 46.93 +15 34 39.5 17.8 R 599 – Campo Imperatore-CINEOS MPS 73689
2003 02 25.98228 10 50 46.44 +15 34 41.3 18.1 R 599 – Campo Imperatore-CINEOS MPS 73689
2003 02 25.99043 10 50 45.94 +15 34 42.6 18.1 R 599 – Campo Imperatore-CINEOS MPS 73689
2003 02 25.99860 10 50 45.45 +15 34 43.8 18.1 R 599 – Campo Imperatore-CINEOS MPS 73689
2003 02 28.30205 10 48 31.04 +15 41 31.2 18.3   704 – Lincoln Laboratory ETS, New Mexico MPS 73689
2003 02 28.31531 10 48 30.23 +15 41 32.9 18.6   704 – Lincoln Laboratory ETS, New Mexico MPS 73689
2003 02 28.33018 10 48 29.29 +15 41 35.9 18.8   704 – Lincoln Laboratory ETS, New Mexico MPS 73689
2003 02 28.34437 10 48 28.43 +15 41 37.7 18.8   704 – Lincoln Laboratory ETS, New Mexico MPS 73689
2003 02 28.35910 10 48 27.53 +15 41 40.7 19.2   704 – Lincoln Laboratory ETS, New Mexico MPS 73689
2003 03 02.27955 10 46 35.40 +15 46 47.3 17.9   704 – Lincoln Laboratory ETS, New Mexico MPS 73689
2003 03 02.29547 10 46 34.47 +15 46 49.0 18.5   704 – Lincoln Laboratory ETS, New Mexico MPS 73689
2003 03 02.31083 10 46 33.49 +15 46 52.4 18.3   704 – Lincoln Laboratory ETS, New Mexico MPS 73689
2003 03 02.34165 10 46 31.63 +15 46 56.8 18.3   704 – Lincoln Laboratory ETS, New Mexico MPS 73689
2003 03 03.31659 10 45 34.77 +15 49 20.0 18.1   704 – Lincoln Laboratory ETS, New Mexico MPS 73689
2003 03 03.34272 10 45 33.24 +15 49 23.3 18.0   704 – Lincoln Laboratory ETS, New Mexico MPS 73689
2003 03 03.35596 10 45 32.40 +15 49 25.1 18.1   704 – Lincoln Laboratory ETS, New Mexico MPS 73689
2003 03 03.90583 10 45 00.81 +15 50 39.8 17.5 R 587 – Sormano MPS 73689
2003 03 03.90904 10 45 00.60 +15 50 40.1 17.8 R 587 – Sormano MPS 73689
2003 03 03.91225 10 45 00.39 +15 50 40.9 17.8 R 587 – Sormano MPS 73689
2003 03 05.24704 10 43 43.19 +15 53 37.4 18.2   704 – Lincoln Laboratory ETS, New Mexico MPS 73689
2003 03 05.26028 10 43 42.36 +15 53 38.5 18.9   704 – Lincoln Laboratory ETS, New Mexico MPS 73689
2003 03 05.27353 10 43 41.67 +15 53 40.2 18.7   704 – Lincoln Laboratory ETS, New Mexico MPS 73689
2003 03 05.28686 10 43 40.85 +15 53 43.4 19.3   704 – Lincoln Laboratory ETS, New Mexico MPS 73689
2003 03 05.29998 10 43 40.10 +15 53 43.8 19.2   704 – Lincoln Laboratory ETS, New Mexico MPS 73689
2003 03 06.16124 10 42 51.10 +15 55 24.7 17.8 R 699 – Lowell Observatory-LONEOS MPS 73689
2003 03 06.17623 10 42 50.25 +15 55 27.2   699 – Lowell Observatory-LONEOS MPS 73689
2003 03 06.19124 10 42 49.30 +15 55 28.5   699 – Lowell Observatory-LONEOS MPS 73689
2003 03 06.20628 10 42 48.35 +15 55 30.7   699 – Lowell Observatory-LONEOS MPS 73689
2003 03 06.30429 10 42 42.59 +15 55 43.2 18.7   704 – Lincoln Laboratory ETS, New Mexico MPS 73689
2003 03 06.31769 10 42 41.76 +15 55 44.9 18.8   704 – Lincoln Laboratory ETS, New Mexico MPS 73689
